Flag for France Weather past 2 weeks in Toulon, France

Now
79 °F

Clear.


Feels Like: 80 °F
Forecast: 62 / 81 °F
Wind: 24 mph from West

Location: Hyeres Airport

Current Time: Aug 27, 2014 at 7:01:17 PM

Latest Report: Aug 27, 2014 at 6:30 PM


Visibility: N/A

Pressure: 29.83 "Hg

Humidity: 51%

Dew point: 59 °F

Location of ToulonLocation

Historic Weather in Toulon — Graph

°F

Toulon temperature yesterday

Maximum temperature yesterday: 81 °F (at 2:30 PM)
Minimum temperature yesterday: 64 °F (at 12:30 AM)
Average temperature yesterday: 73 °F

Past Weeks' High & Low Weather Summary

 TemperatureHumidityPressure
High86 °F (Aug 12, 5:00 PM)94% (Aug 19, 6:00 AM)30.07 "Hg (Aug 19, 6:00 AM)
Low57 °F (Aug 18, 5:00 AM)25% (Aug 14, 5:30 PM)29.71 "Hg (Aug 13, 8:30 AM)
Average73 °F54%29.92 "Hg
* Reported Aug 12 5:00 PM — Aug 27 5:00 PM, Toulon, Weather by CustomWeather, © 2014

Note: Actual official high and low records may vary slightly from our data, if they occured in-between our weather recording intervals... More about our weather records

Advertising

Toulon weather history for previous 24 hours

 ConditionsComfort  
Time TempWeatherWind HumidityBarometerVisibility
5:00 PM
Aug 27
81 °FClear.23 mph48%29.83 "HgN/A
4:30 PM82 °FClear.21 mph45%29.83 "HgN/A
4:00 PM84 °FClear.22 mph45%29.86 "HgN/A
3:30 PM82 °FClear.23 mph48%29.86 "HgN/A
3:00 PM79 °FClear.23 mph58%29.86 "HgN/A
2:30 PM81 °FClear.20 mph51%29.86 "HgN/A
2:00 PM82 °FClear.17 mph48%29.86 "HgN/A
1:30 PM82 °FClear.21 mph51%29.86 "HgN/A
1:00 PM82 °FClear.21 mph51%29.86 "HgN/A
12:30 PM81 °FClear.20 mph54%29.86 "HgN/A
12:00 PM82 °FClear.17 mph51%29.89 "HgN/A
11:30 AM81 °FClear.18 mph54%29.89 "HgN/A
11:00 AM79 °FClear.15 mph61%29.89 "HgN/A
10:30 AM81 °FClear.12 mph54%29.89 "HgN/A
10:00 AM79 °FClear.12 mph58%29.86 "HgN/A
9:30 AM81 °FClear.9 mph48%29.86 "HgN/A
9:00 AM79 °FClear.12 mph54%29.86 "HgN/A
8:30 AM77 °FClear.13 mph57%29.86 "HgN/A
8:00 AM77 °FClear.13 mph57%29.86 "HgN/A
7:30 AM75 °FClear.5 mph61%29.86 "HgN/A
7:00 AM73 °FClear.7 mph69%29.86 "HgN/A
6:30 AM73 °FClear.12 mph69%29.83 "HgN/A
6:00 AM75 °FLight rain. Clear.12 mph65%29.86 "HgN/A
5:30 AM75 °FMild.13 mph61%29.86 "HgN/A
5:00 AM75 °FClear.7 mph65%29.86 "HgN/A
4:30 AM75 °FClear.5 mph65%29.86 "HgN/A
4:00 AM75 °FClear.9 mph65%29.86 "HgN/A
3:30 AM75 °FClear.14 mph65%29.86 "HgN/A
3:00 AM75 °FClear.14 mph69%29.86 "HgN/A
2:00 AM75 °FClear.10 mph74%29.86 "HgN/A
1:30 AM73 °FClear.6 mph78%29.86 "HgN/A
1:00 AM77 °FClear.7 mph65%29.86 "HgN/A
12:30 AM77 °FClear.6 mph69%29.86 "HgN/A
12:00 AM77 °FClear.6 mph65%29.86 "HgN/A
11:30 PM
Aug 26
75 °FClear.5 mph74%29.86 "HgN/A
11:00 PM73 °FClear.5 mph78%29.86 "HgN/A
10:30 PM73 °FClear.3 mph78%29.86 "HgN/A
10:00 PM73 °FClear.No wind78%29.86 "HgN/A
9:30 PM73 °FClear.No wind78%29.86 "HgN/A
9:00 PM73 °FClear.3 mph78%29.86 "HgN/A
8:30 PM72 °FClear.7 mph88%29.83 "HgN/A
8:00 PM72 °FClear.10 mph88%29.83 "HgN/A
7:30 PM75 °FClear.12 mph74%29.83 "HgN/A
7:00 PM75 °FClear.9 mph74%29.83 "HgN/A
Weather by CustomWeather, © 2014

See weather overviewHow to use our weather pages